Location: Haieshausen
(51.8387°N, 9.9720°E)
Time: 04:25:08
(UTC+00:00)

DELTA 2 DEB (DPAF) - Pass Details

Date: 14 July 2020
Orbit: 641 x 647 km, 98.3° (Epoch: 10 August)

Event Time Altitude Azimuth Distance (km) Brightness Sun altitude
Exits shadow 00:46:49 21° 174° (S) 1,468 5.4 -14.4°
Maximum altitude 00:49:50 73° 256° (WSW) 680 4.1 -14.3°
Drops below altitude 10° 00:54:18 10° 342° (NNW) 2,055 7.5 -14.0°
Sets 00:56:32 0° 344° (NNW) 2,969 8.5 -13.9°
